Flag for Norway Weather past 2 weeks in Kleppestø, Norway

Now
53 °F

Cool.


Feels Like: 53 °F
Forecast: 38 / 55 °F
Wind: 2 mph from Northwest

Location: Bergen / Florida

Current Time: Apr 19, 2015 at 10:07:45 PM

Latest Report: Apr 19, 2015 at 9:00 PM


Visibility: N/A

Pressure: 30.39 "Hg

Humidity: 50%

Dew point: 35 °F

Location of KleppestøLocation

Historic Weather in Kleppestø — Graph

°F

Kleppestø temperature yesterday

Maximum temperature yesterday: 55 °F (at 5:00 PM)
Minimum temperature yesterday: 36 °F (at 4:00 AM)
Average temperature yesterday: 45 °F

Past Weeks' High & Low Weather Summary

 TemperatureHumidityPressure
High61 °F (Apr 19, 4:00 PM)88% (Apr 6, 10:00 AM)30.51 "Hg (Apr 6, 10:00 AM)
Low35 °F (Apr 13, 6:00 AM)30% (Apr 19, 6:00 PM)29.58 "Hg (Apr 11, 3:00 PM)
Average44 °F71%30.11 "Hg
* Reported Apr 4 8:00 PM — Apr 19 8:00 PM, Kleppestø, Weather by CustomWeather, © 2015

Note: Actual official high and low records may vary slightly from our data, if they occured in-between our weather recording intervals... More about our weather records

Advertising

Kleppestø weather history for previous 24 hours

 ConditionsComfort  
Time TempWeatherWind HumidityBarometerVisibility
8:00 PM
Sun, Apr 19
56 °FPassing clouds.2 mph43%30.39 "Hg34 mi
7:00 PM59 °FRefreshingly cool.3 mph36%30.38 "HgN/A
6:00 PM61 °FRefreshingly cool.5 mph30%30.38 "HgN/A
5:00 PM61 °FScattered clouds.5 mph33%30.39 "Hg34 mi
4:00 PM61 °FRefreshingly cool.5 mph37%30.39 "HgN/A
3:00 PM61 °FRefreshingly cool.3 mph32%30.40 "HgN/A
2:00 PM59 °FScattered clouds.3 mph37%30.41 "Hg34 mi
1:00 PM57 °FRefreshingly cool.5 mph35%30.42 "HgN/A
12:00 PM56 °FRefreshingly cool.3 mph44%30.42 "HgN/A
11:00 AM56 °FScattered clouds.1 mph38%30.42 "Hg34 mi
10:00 AM49 °FCool.1 mph53%30.42 "HgN/A
9:00 AM45 °FCool.1 mph61%30.42 "HgN/A
8:00 AM44 °FOvercast.1 mph62%30.41 "Hg31 mi
7:00 AM44 °FQuite cool.3 mph65%30.38 "HgN/A
6:00 AM47 °FCool.2 mph48%30.37 "HgN/A
5:00 AM44 °FQuite cool.1 mph61%30.36 "HgN/A
4:00 AM42 °FQuite cool.2 mph74%30.38 "HgN/A
3:00 AM44 °FQuite cool.3 mph74%30.37 "HgN/A
2:00 AM43 °FQuite cool.1 mph75%30.37 "HgN/A
1:00 AM43 °FQuite cool.3 mph79%30.37 "HgN/A
12:00 AM44 °FQuite cool.3 mph76%30.37 "HgN/A
11:00 PM
Sat, Apr 18
45 °FPassing clouds.5 mph72%30.35 "Hg31 mi
10:00 PM46 °FCool.6 mph73%30.36 "HgN/A
Weather by CustomWeather, © 2015

See weather overviewHow to use our weather pages